PBO Station Position Time Series. Reference Frame : NAM14
Format Version,1.1.0
4-character ID,AL50
Station name,ALDOT_5_DIV_OFF
Begin Date, 2006-08-06
End Date, 2019-10-07
Release Date, 2019-10-08
Reference position, 33.1679743402 North Latitude, -87.5015144969 East Longitude, 97.87547 meters elevation,
Date, North (mm), East (mm), Vertical (mm), North Std. Deviation (mm), East Std. Deviation (mm),              Vertical Std. Deviation (mm), Quality,
2006-08-06,0.00, 0.00, 0.00, 1.96, 1.75, 7.86, repro,
2006-08-07,1.41, -1.15, 2.80, 1.93, 1.74, 7.73, repro,
2006-08-08,2.33, 0.04, -0.17, 1.91, 1.70, 7.71, repro,
2006-08-09,0.15, -3.92, 12.29, 2.24, 1.96, 8.80, repro,
2006-08-10,-0.37, -1.47, 4.58, 1.93, 1.72, 7.82, repro,
2006-08-11,0.61, -1.06, 6.17, 2.41, 2.10, 9.88, repro,
2006-08-12,0.07, 2.93, -6.60, 1.93, 1.71, 7.74, repro,
2006-08-13,1.02, 5.92, 4.30, 2.04, 1.72, 8.34, repro,
2006-08-14,-0.69, 0.51, 26.31, 2.06, 1.91, 8.38, repro,
2006-08-15,-0.13, -4.33, 7.71, 2.41, 2.13, 10.19, repro,
2006-08-16,-0.32, 1.38, -3.29, 2.04, 1.87, 8.28, repro,
2006-08-17,2.67, 3.01, 8.37, 1.97, 1.80, 7.90, repro,
2006-08-18,4.33, -0.29, 1.33, 2.01, 1.77, 8.19, repro,
2006-08-19,1.92, 4.89, -3.58, 1.95, 1.79, 8.09, repro,
2006-08-20,1.05, -0.55, 9.05, 1.99, 1.78, 8.23, repro,
2006-08-21,1.64, 2.91, -0.88, 2.15, 1.89, 8.96, repro,
2006-08-22,2.17, 0.89, -4.27, 2.03, 1.86, 8.20, repro,
2006-08-23,0.99, 1.40, 2.21, 1.96, 1.74, 8.02, repro,
2006-08-24,3.38, -1.57, 16.32, 2.27, 2.00, 9.13, repro,
2006-08-25,0.77, 3.06, 14.51, 2.08, 1.91, 8.51, repro,
2006-08-26,2.68, 2.70, -2.79, 2.03, 1.79, 8.13, repro,
2006-08-27,1.23, -1.74, 18.38, 2.13, 1.85, 8.41, repro,
2006-08-28,1.63, 1.30, -0.21, 2.04, 1.80, 8.13, repro,
2006-08-29,-0.04, -2.85, 3.43, 2.10, 1.84, 8.21, repro,
2006-08-30,1.52, -1.53, 6.99, 2.10, 1.87, 8.29, repro,
2006-08-31,0.93, -2.15, 11.56, 2.21, 1.95, 8.73, repro,
2006-09-01,1.15, -1.41, 10.95, 2.08, 1.81, 8.36, repro,
2006-09-02,1.69, -2.01, 1.13, 2.10, 1.95, 8.37, repro,
2006-09-03,2.65, -0.51, 6.28, 2.02, 1.77, 7.99, repro,
2006-09-04,1.54, -2.22, -1.15, 2.10, 1.90, 8.45, repro,
2006-09-05,1.33, 4.31, -16.65, 2.77, 2.71, 11.32, repro,
2006-09-06,-2.43, 2.09, 2.08, 2.74, 2.33, 10.56, repro,
2006-09-14,13.49, -1.11, 5.57, 2.79, 2.79, 11.91, repro,
2006-09-15,6.05, 1.05, 4.57, 1.98, 1.79, 8.07, repro,
2006-09-16,4.94, -0.91, 15.44, 1.91, 1.72, 7.80, repro,
2006-09-17,3.15, -1.20, 8.76, 1.94, 1.76, 7.97, repro,
2006-09-18,-0.54, 0.00, -1.22, 2.40, 2.02, 9.95, repro,
2006-09-19,3.18, 2.41, 10.59, 1.99, 1.82, 8.31, repro,
2006-09-20,5.31, 0.74, 4.46, 1.94, 1.74, 7.86, repro,
2006-09-21,5.46, -1.54, 5.44, 2.10, 1.80, 8.21, repro,
2006-09-22,0.02, 1.29, 9.69, 2.08, 1.82, 8.43, repro,
2006-09-23,3.02, 3.60, 9.07, 2.04, 1.86, 8.33, repro,
2006-09-24,-0.97, 1.46, 5.80, 2.37, 1.97, 9.60, repro,
2006-09-25,5.57, -2.25, 5.88, 2.00, 1.80, 8.00, repro,
2006-09-26,4.84, -11.21, -39.04, 16.89, 33.12, 42.35, repro,
2006-09-27,6.30, -0.68, 9.78, 2.04, 1.79, 8.09, repro,
2006-09-28,1.99, 1.40, 5.14, 2.00, 1.74, 7.95, repro,
2006-09-29,7.26, -0.74, 0.74, 2.05, 1.80, 8.09, repro,
2006-09-30,3.23, 1.50, 10.45, 2.01, 1.81, 8.08, repro,
2006-10-01,4.58, -1.79, 8.19, 2.24, 1.94, 8.77, repro,
2006-10-02,7.19, 0.41, 5.26, 2.00, 1.82, 8.14, repro,
2006-10-03,5.74, 1.89, -6.41, 2.02, 1.82, 8.22, repro,
2006-10-04,4.54, 1.11, -4.83, 2.04, 1.83, 8.22, repro,
2006-10-05,5.73, 0.06, -12.45, 2.00, 1.75, 7.94, repro,
2006-10-06,0.96, 3.29, -8.85, 2.05, 1.81, 8.15, repro,
2006-10-07,8.07, 2.41, -6.12, 2.04, 1.83, 8.21, repro,
2006-10-08,7.26, 1.50, 2.78, 2.04, 1.81, 8.13, repro,
2006-10-09,8.16, -0.76, -4.90, 2.03, 1.77, 8.03, repro,
2006-10-10,4.13, 0.19, 5.38, 1.99, 1.72, 7.90, repro,
2006-10-11,-0.22, 2.35, 13.99, 2.04, 1.79, 8.13, repro,
2006-10-12,3.61, -2.58, 4.55, 1.97, 1.75, 8.02, repro,
2006-10-13,12.79, -0.61, 0.66, 2.01, 1.84, 8.26, repro,
2006-10-14,13.15, -1.60, 8.01, 2.00, 1.76, 7.87, repro,
2006-10-15,11.93, 1.43, 10.01, 1.95, 1.71, 7.73, repro,
2006-10-16,4.98, 2.84, 10.97, 2.00, 1.78, 8.00, repro,
2006-10-17,8.94, -0.64, 11.47, 1.97, 1.77, 8.13, repro,
2006-10-18,15.42, -2.96, 13.17, 1.96, 1.72, 7.79, repro,
2006-10-19,5.06, 0.28, 5.45, 2.11, 1.81, 8.16, repro,
2006-10-20,8.69, -1.35, 1.05, 2.18, 1.88, 8.31, repro,
2006-10-21,10.60, 0.08, 5.55, 2.07, 1.89, 8.15, repro,
2006-10-22,11.39, -3.09, -5.31, 2.03, 1.88, 8.44, repro,
2006-10-23,13.99, -2.32, 0.14, 2.01, 1.78, 7.99, repro,
2006-10-24,17.41, -3.24, -5.97, 2.02, 1.84, 8.17, repro,
2006-10-25,5.27, 0.17, -2.55, 2.13, 1.85, 8.56, repro,
2006-10-26,5.34, -2.15, 0.38, 2.09, 1.75, 8.20, repro,
2006-10-27,6.06, -1.66, 0.58, 2.00, 1.80, 7.99, repro,
2006-10-28,11.56, -2.92, 7.15, 1.96, 1.78, 7.83, repro,
2006-10-29,8.34, 1.11, -1.87, 2.90, 2.43, 11.41, repro,
2006-10-30,11.21, -2.57, 0.54, 1.91, 1.70, 7.67, repro,
2006-10-31,5.59, -0.22, -10.41, 1.99, 1.77, 7.95, repro,
2006-11-01,9.41, -6.23, 2.38, 2.16, 1.96, 8.32, repro,
2006-11-02,14.15, -4.03, -6.91, 1.94, 1.72, 7.71, repro,
2006-11-03,13.97, -2.18, -10.17, 2.18, 1.97, 8.48, repro,
2006-11-04,12.19, -3.06, -6.04, 2.11, 1.89, 8.54, repro,
2006-11-05,10.59, -2.04, -3.03, 2.02, 1.82, 8.13, repro,
2006-11-06,6.61, -2.41, -5.95, 1.90, 1.67, 7.62, repro,
2006-11-07,3.17, -3.67, 0.54, 2.07, 1.86, 8.25, repro,
2006-11-08,10.44, -1.71, 9.53, 1.97, 1.79, 7.89, repro,
2006-11-09,13.34, -1.36, 11.05, 2.02, 1.84, 8.08, repro,
2006-11-10,7.30, -1.47, 7.32, 1.94, 1.77, 8.03, repro,
2006-11-11,3.33, -0.02, 0.92, 1.97, 1.79, 8.16, repro,
2006-11-12,12.71, -1.71, -2.22, 2.01, 1.82, 8.14, repro,
2006-11-13,9.27, -1.60, 0.10, 1.97, 1.79, 8.00, repro,
2006-11-14,8.09, -4.18, -0.13, 1.95, 1.73, 7.80, repro,
2006-11-15,3.12, -0.75, 11.91, 1.95, 1.73, 8.01, repro,
2006-11-16,2.34, -4.47, 4.87, 1.95, 1.73, 7.97, repro,
2006-11-17,10.81, -4.87, 0.87, 1.97, 1.75, 7.93, repro,
2006-11-18,10.42, -2.48, -3.09, 1.96, 1.72, 7.90, repro,
2006-11-19,4.58, -0.62, -6.39, 1.89, 1.69, 7.68, repro,
2006-11-20,9.78, -2.29, -16.88, 1.93, 1.70, 7.81, repro,
2006-11-21,12.07, -1.73, -5.62, 1.94, 1.72, 7.92, repro,
2006-11-22,9.74, 0.31, -2.53, 1.99, 1.77, 8.07, repro,
2006-11-23,11.84, 0.86, -4.81, 2.03, 1.75, 8.13, repro,
2006-11-24,11.07, 1.07, -3.61, 2.03, 1.77, 8.23, repro,
2006-11-25,9.83, 2.10, -1.54, 1.99, 1.75, 7.97, repro,
2006-11-26,9.34, 0.35, -4.63, 1.96, 1.77, 7.94, repro,
2006-11-27,7.16, 0.19, -7.37, 2.00, 1.81, 8.20, repro,
2006-11-28,3.10, -0.86, -2.97, 1.96, 1.75, 8.11, repro,
2006-11-29,2.49, -2.74, -4.30, 2.05, 1.76, 8.50, repro,
2006-11-30,3.12, 0.06, -9.47, 1.91, 1.70, 7.80, repro,
2006-12-01,10.33, -4.51, -21.26, 1.95, 1.73, 7.98, repro,
2006-12-02,8.20, -1.53, -10.73, 1.95, 1.74, 7.88, repro,
2006-12-03,9.30, -3.46, -10.76, 1.89, 1.69, 7.76, repro,
2006-12-04,4.26, -5.65, -14.61, 2.26, 2.02, 9.29, repro,
2006-12-05,10.03, -0.45, -11.07, 1.93, 1.74, 7.93, repro,
2006-12-06,3.79, -1.47, -1.62, 1.96, 1.77, 8.00, repro,
2006-12-07,8.18, -2.65, -15.49, 1.92, 1.71, 7.82, repro,
2006-12-08,8.70, -0.59, -12.24, 2.01, 1.78, 8.19, repro,
2006-12-09,9.91, 0.33, -6.30, 1.95, 1.75, 7.99, repro,
2006-12-10,3.58, 1.12, -7.75, 1.99, 1.79, 8.21, repro,
2006-12-11,6.70, -1.14, 0.10, 1.93, 1.73, 7.92, repro,
2006-12-12,2.50, -1.87, -11.90, 1.96, 1.76, 7.98, repro,
2006-12-13,6.02, -1.00, -8.59, 1.93, 1.74, 7.98, repro,
2006-12-14,6.29, 2.15, 0.52, 2.11, 1.94, 8.56, repro,
2006-12-15,6.46, 1.64, 1.57, 2.16, 2.00, 8.94, repro,
2006-12-16,-0.70, -4.99, -9.75, 3.85, 3.41, 14.52, repro,
2006-12-18,22.26, -3.30, -25.67, 12.91, 22.55, 34.63, repro,
2006-12-19,8.07, 4.83, -3.95, 4.33, 3.36, 15.88, repro,
2006-12-20,2.61, 0.55, 8.27, 2.69, 2.39, 10.55, repro,
2006-12-21,1.17, -2.99, -5.55, 2.03, 1.86, 8.49, repro,
2006-12-22,2.86, -3.63, -0.38, 2.28, 2.04, 9.41, repro,
2006-12-23,7.37, -4.24, -3.73, 2.19, 1.93, 9.14, repro,
2006-12-24,3.23, -2.74, -14.56, 2.18, 2.03, 9.08, repro,
2006-12-25,1.02, -2.98, -3.94, 2.01, 1.83, 8.31, repro,
2006-12-26,1.38, -5.87, -1.60, 2.14, 1.96, 9.04, repro,
2006-12-27,9.27, -0.93, 9.09, 2.02, 1.80, 8.36, repro,
2006-12-28,7.97, 0.20, 0.98, 2.25, 1.90, 9.25, repro,
2006-12-29,3.27, 0.31, -10.74, 2.31, 2.25, 9.89, repro,
2006-12-30,2.14, -0.25, -11.49, 2.83, 2.45, 11.46, repro,
2006-12-31,0.95, -3.56, -1.15, 2.06, 1.84, 8.57, repro,
2007-01-01,1.96, -4.11, -0.06, 2.09, 1.88, 8.67, repro,
2007-01-02,9.62, -1.11, -6.17, 2.08, 1.82, 8.61, repro,
2007-01-03,1.96, 0.27, -6.43, 2.04, 1.78, 8.50, repro,
2007-01-04,1.85, -1.91, 1.36, 2.05, 1.84, 8.51, repro,
2007-01-05,1.68, 0.84, 5.81, 2.10, 1.86, 8.73, repro,
2007-01-06,7.18, -0.27, 6.80, 2.01, 1.71, 8.27, repro,
2007-01-07,1.89, -0.67, 1.18, 2.31, 2.16, 9.56, repro,
2007-01-08,7.11, -3.41, -6.84, 2.13, 1.90, 8.85, repro,
2007-01-09,4.33, -1.26, -5.43, 2.00, 1.76, 8.41, repro,
2007-01-10,6.20, 0.68, -3.33, 1.98, 1.80, 8.32, repro,
2007-01-11,5.24, -0.56, -11.82, 2.02, 1.86, 8.47, repro,
2007-01-12,3.98, 0.33, -10.00, 1.93, 1.74, 7.94, repro,
2007-01-13,1.26, 0.08, -12.36, 1.99, 1.71, 8.25, repro,
2007-01-14,1.65, -1.04, -11.92, 1.95, 1.73, 8.09, repro,
2007-01-15,-0.26, -3.28, -7.28, 2.15, 1.97, 8.82, repro,
2007-01-16,2.74, -4.16, -14.72, 2.18, 1.97, 9.00, repro,
2007-01-17,1.14, -3.78, -26.72, 2.05, 1.78, 8.57, repro,
2007-01-18,0.37, -1.43, -13.18, 1.93, 1.68, 7.94, repro,
2007-01-19,2.95, -2.80, -11.99, 2.14, 1.93, 8.73, repro,
2007-01-20,0.29, -0.91, -17.19, 2.17, 2.01, 9.21, repro,
2007-01-21,-0.14, -2.39, -5.55, 1.89, 1.68, 7.89, repro,
2007-01-22,0.41, -5.68, 4.49, 2.00, 1.78, 8.11, repro,
2007-01-23,0.09, -4.88, -10.49, 2.09, 1.84, 8.43, repro,
2007-01-24,0.36, -4.86, -12.21, 2.14, 1.94, 8.62, repro,
2007-01-25,4.44, -0.97, -14.56, 2.15, 1.92, 9.09, repro,
2007-01-26,6.42, -0.30, -11.96, 2.03, 1.87, 8.69, repro,
2007-01-27,-0.43, -4.59, -11.70, 2.01, 1.84, 8.54, repro,
2007-01-28,5.51, -1.94, 1.84, 1.96, 1.76, 8.13, repro,
2007-01-29,3.58, -6.49, -17.61, 2.32, 2.15, 9.42, repro,
2007-01-30,-1.44, -2.90, -16.00, 2.45, 2.27, 10.22, repro,
2007-01-31,4.18, -1.06, -11.10, 2.22, 2.01, 9.22, repro,
2007-02-01,1.43, -2.02, -7.18, 2.13, 1.94, 9.00, repro,
2007-02-02,0.49, -4.93, -5.68, 2.04, 1.85, 8.42, repro,
2007-02-03,2.31, -4.34, -11.31, 2.03, 1.80, 8.41, repro,
2007-02-04,1.88, -1.71, -14.67, 1.99, 1.79, 8.52, repro,
2007-02-05,4.74, 1.62, -16.97, 1.94, 1.75, 8.14, repro,
2007-02-06,3.14, 1.63, -20.12, 1.98, 1.81, 8.58, repro,
2007-02-07,2.18, -2.38, -11.93, 2.09, 1.94, 8.86, repro,
2007-02-08,-1.23, -1.02, -14.87, 2.16, 1.91, 9.35, repro,
2007-02-09,0.11, -4.62, -14.22, 2.09, 1.90, 8.90, repro,
2007-02-10,2.62, -0.07, -15.52, 2.10, 1.92, 9.10, repro,
2007-02-11,3.78, 2.03, -14.95, 2.05, 1.93, 8.94, repro,
2007-02-12,2.68, 2.48, -13.37, 2.09, 1.89, 9.15, repro,
2007-02-13,-1.54, -2.23, -4.78, 2.24, 2.03, 9.43, repro,
2007-02-14,1.43, -1.02, -13.60, 2.07, 1.84, 8.82, repro,
2007-02-15,3.10, -2.02, -14.72, 2.17, 1.99, 9.15, repro,
2007-02-16,0.58, -8.16, -15.91, 2.26, 2.04, 9.36, repro,
2007-02-17,-1.01, -2.79, -7.59, 2.19, 1.99, 9.30, repro,
2007-02-18,4.10, -2.33, -20.47, 2.06, 1.85, 8.75, repro,
2007-02-19,0.86, -0.76, -8.17, 2.05, 1.90, 8.54, repro,
2007-02-20,-0.67, -3.95, -8.24, 2.05, 1.84, 8.58, repro,
2007-02-21,-2.49, -0.46, -4.34, 1.97, 1.73, 8.10, repro,
2007-02-22,5.00, -0.30, -11.12, 2.01, 1.75, 8.26, repro,
2007-02-23,3.17, -1.03, -15.81, 1.97, 1.76, 8.16, repro,
2007-02-24,-1.22, -0.28, -1.88, 2.03, 1.79, 8.50, repro,
2007-02-25,0.61, -4.70, -2.52, 2.19, 1.95, 8.91, repro,
2007-02-26,2.54, -1.17, -8.63, 2.05, 1.82, 8.40, repro,
2007-02-27,3.02, 0.54, -17.35, 2.09, 1.86, 8.55, repro,
2007-02-28,0.79, -3.33, -13.39, 2.01, 1.73, 8.28, repro,
2007-03-01,-3.00, -1.87, -5.57, 2.05, 1.81, 8.31, repro,
2007-03-02,2.21, -7.08, -6.29, 1.98, 1.74, 7.97, repro,
2007-03-03,0.95, -3.81, -10.98, 1.95, 1.70, 7.79, repro,
2007-03-04,4.35, -4.01, -15.01, 1.93, 1.71, 7.81, repro,
2007-03-05,2.24, -2.29, -21.69, 2.04, 1.80, 8.22, repro,
2007-03-06,1.07, -0.68, -16.69, 2.02, 1.81, 8.37, repro,
2007-03-07,1.62, -2.25, -15.03, 1.96, 1.74, 8.03, repro,
2007-03-08,4.15, -1.63, -18.34, 1.99, 1.76, 8.01, repro,
2007-03-09,2.24, -1.23, -14.86, 2.02, 1.75, 8.18, repro,
2007-03-10,2.84, -1.74, -10.93, 2.00, 1.82, 8.25, repro,
2007-03-11,0.80, -2.90, -17.81, 1.96, 1.74, 7.97, repro,
2007-03-12,2.90, -1.29, -9.20, 2.05, 1.79, 8.21, repro,
2007-03-13,-0.84, -1.36, -13.24, 2.02, 1.83, 8.20, repro,
2007-03-14,0.98, -1.73, -8.39, 2.02, 1.77, 8.22, repro,
2007-03-15,0.45, -0.93, -7.83, 1.94, 1.72, 7.98, repro,
2007-03-16,3.42, -0.19, -8.90, 1.95, 1.73, 8.00, repro,
2007-03-17,4.36, -3.70, -19.40, 1.89, 1.66, 7.74, repro,
2007-03-18,4.95, -1.72, -18.60, 1.94, 1.69, 7.84, repro,
2007-03-19,2.16, -4.62, -18.01, 1.94, 1.68, 7.85, repro,
2007-03-20,4.76, -3.75, -21.85, 2.02, 1.81, 8.47, repro,
2007-03-21,1.08, 1.22, -20.76, 2.08, 1.84, 8.37, repro,
2007-03-22,2.84, 1.00, -13.49, 2.04, 1.81, 8.51, repro,
2007-03-23,3.69, 0.96, -12.87, 1.93, 1.75, 7.99, repro,
2007-03-24,2.77, -1.19, -15.41, 1.92, 1.70, 7.91, repro,
2007-03-25,2.07, -5.54, -8.77, 1.93, 1.68, 7.87, repro,
2007-03-26,2.90, -1.55, -7.52, 1.90, 1.69, 7.85, repro,
2007-03-27,1.02, -2.20, -6.48, 1.95, 1.73, 7.99, repro,
2007-03-28,1.50, -0.33, -5.01, 2.02, 1.74, 8.25, repro,
2007-03-29,0.89, -0.20, -19.26, 2.03, 1.82, 8.28, repro,
2007-03-30,0.48, 2.46, -8.15, 2.00, 1.77, 8.30, repro,
2007-03-31,-0.01, -2.39, -6.87, 1.94, 1.71, 7.93, repro,
2007-04-01,-0.19, 0.15, -0.45, 1.94, 1.72, 8.01, repro,
2007-04-02,4.28, 1.80, -6.20, 2.04, 1.80, 8.51, repro,
2007-04-03,1.54, -0.39, -7.03, 2.04, 1.76, 8.15, repro,
2007-04-04,4.24, -2.43, -9.20, 2.13, 1.84, 8.69, repro,
2007-04-05,1.64, -1.26, -18.75, 2.34, 1.98, 9.50, repro,
2007-04-06,-0.46, -0.84, -13.54, 2.45, 2.11, 10.06, repro,
2007-04-07,0.06, -0.87, -13.38, 2.27, 2.07, 9.70, repro,
2007-04-08,1.25, 2.61, -9.39, 2.16, 2.05, 9.05, repro,
2007-04-09,0.52, 0.95, -1.81, 2.08, 1.91, 9.00, repro,
2007-04-10,0.70, -5.62, -8.78, 2.07, 1.89, 8.63, repro,
2007-04-11,-1.01, -0.74, 5.37, 2.13, 1.90, 8.82, repro,
2007-04-12,0.95, -7.11, -13.65, 2.00, 1.79, 8.32, repro,
2007-04-13,0.45, -1.54, -3.45, 2.13, 1.93, 8.82, repro,
2007-04-14,0.18, -1.20, -1.54, 2.25, 2.00, 9.09, repro,
2007-04-15,1.62, -2.31, -9.12, 2.10, 1.95, 8.69, repro,
2007-04-16,1.14, -0.07, -8.31, 2.10, 1.95, 8.87, repro,
2007-04-17,1.98, -3.19, -4.90, 1.97, 1.77, 8.34, repro,
2007-04-18,1.16, 3.69, -3.73, 1.91, 1.70, 7.86, repro,
2007-04-19,0.48, -4.30, -8.74, 1.93, 1.70, 7.88, repro,
2007-04-20,2.84, -2.14, -13.85, 1.90, 1.67, 7.86, repro,
2007-04-21,2.00, -1.19, -13.31, 1.91, 1.71, 8.01, repro,
2007-04-22,1.24, -4.33, -11.41, 1.95, 1.74, 8.17, repro,
2007-04-23,1.20, -3.00, -9.99, 1.98, 1.80, 8.09, repro,
2007-04-24,2.72, 1.90, -12.11, 1.92, 1.73, 7.90, repro,
2007-04-25,1.59, 1.16, 4.76, 1.94, 1.73, 8.03, repro,
2007-04-26,0.85, -2.45, -1.56, 2.33, 2.11, 9.69, repro,
2007-04-27,-0.07, 0.67, -1.65, 2.28, 2.05, 9.44, repro,
2007-04-28,1.32, -1.31, -8.75, 2.17, 1.92, 9.00, repro,
2007-04-29,2.57, 1.59, -12.14, 2.05, 1.88, 8.49, repro,
2007-04-30,-0.78, 2.53, -1.64, 2.09, 1.92, 8.69, repro,
2007-05-01,0.72, -2.44, -9.51, 1.97, 1.78, 8.12, repro,
2007-05-02,1.21, -2.95, -11.91, 2.10, 1.91, 8.61, repro,
2007-05-03,1.02, -2.65, -6.33, 2.18, 1.96, 8.84, repro,
2007-05-04,2.78, -1.65, 0.56, 2.11, 1.94, 8.81, repro,
2007-05-05,2.04, -1.63, -6.23, 1.97, 1.79, 8.26, repro,
2007-05-06,2.48, -2.66, -4.67, 1.95, 1.74, 8.03, repro,
2007-05-07,1.37, -0.64, -10.22, 1.94, 1.71, 8.01, repro,
2007-05-08,0.71, -3.27, -6.86, 1.97, 1.77, 8.13, repro,
2007-05-09,-0.76, -0.30, 1.25, 1.97, 1.80, 8.22, repro,
2007-05-10,0.12, -2.34, -15.07, 2.06, 1.89, 9.11, repro,
2007-05-11,0.39, -1.56, -5.01, 2.09, 1.94, 8.93, repro,
2007-05-12,1.81, -3.25, 0.80, 2.03, 1.88, 8.44, repro,
2007-05-13,1.09, -0.81, -0.15, 2.02, 1.93, 8.71, repro,
2007-05-14,2.33, 0.38, -5.03, 1.86, 1.75, 7.85, repro,
2007-05-15,1.89, -0.41, -3.25, 1.86, 1.70, 7.89, repro,
2007-05-16,1.45, 2.87, 4.92, 2.07, 1.96, 8.80, repro,
2007-05-17,3.36, -4.60, -5.96, 1.99, 1.81, 8.10, repro,
2007-05-18,2.01, -1.46, -11.08, 2.02, 1.92, 8.59, repro,
2007-05-19,2.60, -0.92, -12.09, 2.00, 1.90, 8.27, repro,
2007-05-20,1.55, 1.56, 3.16, 2.02, 1.88, 8.44, repro,
2007-05-21,1.85, 0.40, -3.96, 1.93, 1.78, 8.08, repro,
2007-05-22,2.17, -1.40, -6.30, 1.92, 1.76, 7.97, repro,
2007-05-23,2.86, -1.41, -6.39, 1.93, 1.77, 8.04, repro,
2007-05-24,3.45, 1.58, -4.83, 1.94, 1.78, 8.22, repro,
2007-05-25,3.75, 0.69, -4.19, 1.88, 1.73, 7.83, repro,
2007-05-26,0.61, -0.95, -6.95, 1.93, 1.78, 8.18, repro,
2007-05-27,2.35, -3.28, -5.74, 1.88, 1.69, 7.85, repro,
2007-05-28,1.11, -1.94, -2.86, 1.93, 1.76, 8.04, repro,
2007-05-29,2.54, 0.32, -1.59, 2.00, 1.84, 8.30, repro,
2007-05-30,4.51, 1.50, -1.83, 2.06, 1.90, 8.46, repro,
2007-05-31,3.73, 0.17, -2.27, 2.10, 1.97, 8.88, repro,
2007-06-01,4.37, 2.29, 2.44, 2.10, 1.97, 8.94, repro,
2007-06-02,4.28, -0.17, 9.94, 2.07, 1.89, 8.56, repro,
2007-06-03,1.10, -1.53, 1.72, 1.94, 1.76, 7.89, repro,
2007-06-04,0.13, -2.21, 3.71, 1.92, 1.78, 8.01, repro,
2007-06-05,-0.34, 2.53, 4.71, 2.09, 1.96, 8.99, repro,
2007-06-06,2.46, -3.20, 7.38, 2.19, 2.05, 8.70, repro,
2007-06-07,3.78, 4.88, 6.03, 2.31, 2.24, 9.41, repro,
2007-06-08,2.65, -2.02, 2.23, 2.21, 2.08, 9.56, repro,
2007-06-09,3.93, 0.80, -6.03, 2.09, 1.95, 8.62, repro,
2007-06-10,2.43, -0.15, 1.95, 1.97, 1.85, 8.17, repro,
2007-06-11,2.92, 0.83, 3.51, 2.01, 1.81, 8.28, repro,
2007-06-12,4.16, 1.37, 3.44, 2.06, 1.77, 8.84, repro,
2007-06-13,2.53, 1.25, 10.51, 2.05, 1.90, 8.27, repro,
2007-06-14,1.84, 3.15, -4.95, 2.15, 2.03, 8.99, repro,
2007-06-15,4.46, -1.26, -3.28, 2.15, 2.01, 8.88, repro,
2007-06-16,4.13, -1.20, -4.01, 2.06, 1.91, 8.60, repro,
2007-06-17,-0.11, 0.09, 2.93, 2.11, 1.95, 8.64, repro,
2007-06-18,1.91, -1.76, 3.61, 1.93, 1.77, 8.04, repro,
2007-06-19,3.56, 0.73, 19.13, 2.09, 1.89, 8.74, repro,
2007-06-20,3.06, -2.56, -3.91, 2.01, 1.78, 8.47, repro,
2007-06-21,4.30, 1.57, -5.64, 1.94, 1.78, 7.91, repro,
2007-06-22,0.97, 2.66, 3.36, 2.02, 1.85, 8.44, repro,
2007-06-23,2.41, 2.47, 9.73, 2.14, 1.98, 8.58, repro,
2007-06-24,4.99, -3.74, -5.44, 2.14, 2.03, 8.96, repro,
2007-06-25,2.90, 0.57, 7.91, 2.05, 1.90, 8.47, repro,
2007-06-26,4.55, -0.05, 1.40, 2.12, 1.95, 8.54, repro,
2007-06-27,3.80, -4.35, 3.45, 2.20, 1.99, 9.16, repro,
2007-06-28,2.69, -4.07, 5.38, 2.04, 1.89, 8.60, repro,
2007-06-29,4.94, -2.73, 2.24, 2.34, 2.19, 9.65, repro,
2007-06-30,-0.92, -2.14, 11.47, 2.16, 1.99, 8.86, repro,
2007-07-01,3.52, 1.34, 11.42, 2.34, 2.17, 9.49, repro,
2007-07-02,2.75, -3.53, 5.06, 2.14, 1.94, 8.87, repro,
2007-07-03,5.08, -0.45, 16.09, 2.23, 2.01, 8.95, repro,
2007-07-04,3.23, -0.20, 1.97, 2.04, 1.90, 8.42, repro,
2007-07-05,3.07, -0.61, -0.35, 1.95, 1.76, 8.06, repro,
2007-07-06,5.45, -3.21, -5.15, 1.88, 1.70, 7.71, repro,
2007-07-07,5.44, -2.09, 2.75, 1.98, 1.83, 8.16, repro,
2007-07-08,6.60, -0.26, 11.48, 2.07, 1.88, 8.57, repro,
2007-07-09,2.17, 0.46, 1.92, 2.18, 2.08, 9.05, repro,
2007-07-10,2.66, -3.01, 1.64, 2.18, 2.12, 9.01, repro,
2007-07-11,4.17, 0.67, 2.50, 2.11, 1.92, 8.59, repro,
2007-07-12,3.18, -2.29, 5.26, 1.93, 1.74, 7.91, repro,
2007-07-13,4.28, -0.07, 11.19, 1.98, 1.74, 8.08, repro,
2007-07-14,6.94, -0.29, 0.92, 2.03, 1.80, 8.10, repro,
2007-07-15,1.37, -4.50, 6.04, 2.00, 1.84, 8.46, repro,
2007-07-16,-0.53, -1.31, -1.74, 2.13, 1.94, 9.16, repro,
2007-07-17,2.52, -1.36, 8.47, 2.21, 1.98, 8.67, repro,
2007-07-18,1.76, 0.15, 3.16, 2.24, 2.01, 9.29, repro,
2007-07-19,4.32, -3.74, 13.26, 2.10, 1.93, 8.65, repro,
2007-07-20,3.31, -3.69, 2.83, 2.67, 2.41, 10.68, repro,
2007-07-21,5.75, -1.90, 6.28, 1.95, 1.77, 8.31, repro,
2007-07-22,3.24, -2.30, 11.27, 1.93, 1.71, 7.99, repro,
2007-07-23,0.41, -0.03, 0.34, 2.20, 1.98, 9.08, repro,
2007-07-24,2.07, -2.29, 3.93, 2.22, 1.97, 9.49, repro,
2007-07-25,2.93, -1.29, 9.98, 2.26, 2.05, 8.96, repro,
2007-07-26,1.70, -0.16, 14.56, 2.15, 1.93, 8.97, repro,
2007-07-27,4.09, -3.58, 1.13, 2.14, 1.96, 8.75, repro,
2007-07-28,3.88, -5.91, 18.41, 2.10, 1.94, 8.67, repro,
2007-07-29,1.23, -0.62, 13.15, 2.01, 1.80, 8.46, repro,
2007-07-30,3.21, -3.65, 22.33, 1.99, 1.75, 7.99, repro,
2007-07-31,0.75, -2.72, 18.04, 2.18, 1.94, 8.89, repro,
2007-08-01,2.58, 1.82, 7.99, 2.03, 1.90, 8.60, repro,
2007-08-02,0.10, -2.71, 15.02, 2.14, 1.93, 9.04, repro,
2007-08-03,5.00, -5.63, 14.98, 2.10, 1.93, 8.81, repro,
2007-08-04,2.88, -3.76, 18.64, 2.34, 2.08, 9.50, repro,
2007-08-05,4.49, 1.55, 11.65, 1.99, 1.83, 8.20, repro,
2007-08-06,3.05, -3.68, 18.19, 1.99, 1.88, 8.31, repro,
2007-08-07,5.90, 0.57, 12.19, 1.95, 1.76, 8.05, repro,
2007-08-08,2.86, -0.14, 18.37, 1.93, 1.78, 7.97, repro,
2007-08-09,4.43, -0.04, 16.61, 2.12, 1.91, 8.81, repro,
2007-08-10,5.50, -8.29, 16.47, 2.88, 2.37, 10.96, repro,
2007-08-11,6.40, 3.05, 22.29, 2.09, 1.97, 8.88, repro,
2007-08-12,7.02, -0.24, 11.24, 2.08, 1.95, 8.62, repro,
2007-08-13,4.27, -1.53, 18.45, 2.32, 2.19, 9.53, repro,
2007-08-14,5.29, 1.40, 13.14, 2.08, 1.83, 8.57, repro,
2007-08-15,4.21, 2.45, 22.62, 2.10, 1.87, 8.58, repro,
2007-08-16,3.57, -0.36, 27.15, 2.49, 1.98, 9.60, repro,
2007-08-17,5.64, 0.77, 4.42, 2.06, 1.86, 8.12, repro,
2007-08-18,9.99, -2.10, -0.91, 3.56, 3.16, 13.50, repro,
2007-08-20,10.34, 0.22, 22.92, 2.80, 2.74, 11.70, repro,
2007-08-21,7.81, -1.91, 5.93, 1.99, 1.81, 8.06, repro,
2007-08-22,6.74, 2.62, 16.15, 2.09, 1.89, 8.35, repro,
2007-08-23,5.21, 5.22, 21.60, 2.44, 2.02, 9.52, repro,
2007-08-24,7.67, -0.37, 19.30, 2.15, 1.83, 8.77, repro,
2007-08-25,4.98, -3.75, 4.49, 2.13, 1.88, 8.81, repro,
2007-08-26,7.86, -0.29, 6.61, 2.12, 1.90, 8.55, repro,
2007-08-27,8.65, -1.53, 11.29, 2.20, 1.91, 8.68, repro,
2007-08-28,6.85, 2.39, 11.11, 1.98, 1.77, 8.17, repro,
2007-08-29,6.44, -0.43, 13.80, 1.97, 1.74, 8.10, repro,
2007-08-30,7.86, -3.06, 8.00, 2.04, 1.88, 8.69, repro,
2007-08-31,7.47, -0.63, 8.40, 2.20, 1.84, 8.96, repro,
2007-09-01,5.77, -1.25, -1.84, 2.01, 1.83, 8.35, repro,
2007-09-02,4.06, 1.98, -2.68, 2.02, 1.84, 8.40, repro,
2007-09-03,6.00, 3.29, 12.48, 2.03, 1.84, 8.34, repro,
2007-09-04,6.88, 0.34, 7.57, 2.01, 1.77, 8.11, repro,
2007-09-05,4.36, -0.65, 14.86, 2.01, 1.78, 8.23, repro,
2007-09-06,5.02, 5.49, 10.73, 2.01, 1.81, 8.49, repro,
2007-09-07,2.09, -1.29, 14.15, 2.11, 1.86, 8.63, repro,
2007-09-08,6.11, -1.05, 15.98, 2.07, 1.84, 8.33, repro,
2007-09-09,8.14, 1.06, 14.42, 2.09, 1.86, 8.33, repro,
2007-09-10,10.16, -1.19, 4.35, 2.19, 1.98, 8.78, repro,
2007-09-11,6.03, -0.27, 9.80, 2.10, 1.85, 8.43, repro,
2007-09-13,1.91, 0.78, 7.77, 2.05, 1.81, 8.23, repro,
2007-09-14,6.71, 1.76, 16.35, 1.99, 1.77, 8.18, repro,
2007-09-15,8.63, 0.35, 6.18, 2.08, 1.86, 8.29, repro,
2007-09-16,9.31, 1.39, 4.53, 2.02, 1.77, 8.08, repro,
2007-09-17,8.87, 3.52, 8.46, 2.07, 1.80, 8.25, repro,
2007-09-18,9.60, 2.02, 4.97, 1.97, 1.74, 8.03, repro,
2007-09-19,7.56, 2.74, 8.20, 1.91, 1.72, 7.65, repro,
2007-09-20,8.21, 2.44, 12.74, 1.88, 1.70, 7.62, repro,
2007-09-21,6.10, 1.73, 9.56, 2.02, 1.80, 8.04, repro,
2007-09-22,6.93, 4.06, 14.16, 1.98, 1.77, 8.07, repro,
2007-09-23,4.76, 3.32, 3.86, 2.05, 1.81, 8.14, repro,
2007-09-24,6.96, -2.29, 0.09, 1.99, 1.80, 8.05, repro,
2007-09-25,9.23, -1.00, 2.04, 1.88, 1.74, 7.68, repro,
2007-09-26,10.02, 1.71, 9.28, 2.02, 1.78, 7.99, repro,
2007-09-27,5.92, 1.27, 8.13, 3.09, 2.43, 11.68, repro,
2007-09-28,9.72, 13.59, 16.30, 6.05, 6.28, 21.96, repro,
2007-09-30,11.68, -0.46, 3.65, 2.26, 2.11, 9.19, repro,
2007-10-01,17.19, 4.78, -9.35, 3.56, 3.93, 15.36, repro,
2007-10-02,10.87, 0.26, 3.98, 2.00, 1.83, 7.95, repro,
2007-10-03,3.58, 3.44, 10.69, 2.08, 1.88, 8.15, repro,
2007-10-04,3.64, 1.27, 8.76, 1.96, 1.79, 7.90, repro,
2007-10-05,2.97, 2.42, 9.94, 1.96, 1.76, 7.82, repro,
2007-10-06,8.80, -0.58, 3.31, 1.98, 1.77, 7.82, repro,
2007-10-07,5.51, 0.97, 1.18, 1.97, 1.79, 7.85, repro,
2007-10-08,7.67, -0.37, 0.09, 2.14, 1.93, 8.38, repro,
2007-10-09,4.86, 3.37, 3.46, 2.27, 1.93, 9.09, repro,
2007-10-10,11.53, -0.37, 3.85, 2.05, 1.90, 8.20, repro,
2007-10-11,10.86, 0.34, 4.32, 1.95, 1.75, 7.69, repro,
2007-10-12,10.86, 0.02, -1.32, 2.02, 1.79, 8.06, repro,